EZY2005 EPGD-EGKK

Flight info

Callsign EZY2005
Flight time N/A
Altitude 38000
Route DEXIR3H DEXIR T671 AGODU DCT BINKA DCT BUMIL DCT ODVIL DCT GALSO Q63 ARREK Y4 TEBRA TEBRA2G
Aircraft A319/M-SDE3FGHIRWY/LB1

Departure

Time N/A
Airport Gdańsk Lech Wałęsa Airport (EPGD)

Arrival

Time 2026-05-05 21:22
Airport London Gatwick Airport (EGKK)
Time Latitude Longitude Altitude Speed Heading
2026-05-05 20:54 51.65908 2.34139 37949 ft 443 kts 259°
2026-05-05 20:54 51.65454 2.29232 37948 ft 443 kts 259°
2026-05-05 20:55 51.64542 2.19406 37948 ft 444 kts 259°
2026-05-05 20:55 51.63615 2.09585 37950 ft 444 kts 259°
2026-05-05 20:56 51.62709 1.99771 37953 ft 444 kts 259°
2026-05-05 20:56 51.61795 1.89973 37955 ft 444 kts 259°
2026-05-05 20:57 51.61098 1.85155 37961 ft 441 kts 246°
2026-05-05 20:57 51.59655 1.80837 37954 ft 439 kts 232°
2026-05-05 20:57 51.57686 1.77040 37712 ft 443 kts 228°
2026-05-05 20:57 51.55638 1.73361 37217 ft 437 kts 226°
2026-05-05 20:58 51.53637 1.69804 36738 ft 432 kts 227°
2026-05-05 20:58 51.51648 1.66193 36272 ft 430 kts 227°
2026-05-05 20:58 51.49697 1.62540 35812 ft 430 kts 231°
2026-05-05 20:58 51.48237 1.58337 35387 ft 434 kts 245°
2026-05-05 20:59 51.47166 1.53777 34952 ft 436 kts 248°
2026-05-05 20:59 51.46155 1.49244 34525 ft 436 kts 248°
2026-05-05 20:59 51.45114 1.44670 34100 ft 436 kts 246°
2026-05-05 20:59 51.43963 1.40190 33608 ft 434 kts 239°
2026-05-05 21:00 51.42197 1.36314 33134 ft 429 kts 224°
2026-05-05 21:00 51.39912 1.33238 32664 ft 429 kts 215°
2026-05-05 21:00 51.37489 1.30397 32176 ft 432 kts 214°
2026-05-05 21:00 51.35081 1.27594 31703 ft 434 kts 215°
2026-05-05 21:01 51.32653 1.24718 31239 ft 435 kts 216°
2026-05-05 21:01 51.30218 1.21821 30787 ft 437 kts 216°
2026-05-05 21:01 51.27763 1.18931 30342 ft 439 kts 215°
2026-05-05 21:01 51.25296 1.16041 29890 ft 440 kts 216°
2026-05-05 21:02 51.22828 1.13138 29379 ft 442 kts 216°
2026-05-05 21:02 51.20337 1.10208 28871 ft 443 kts 216°
2026-05-05 21:02 51.17874 1.07323 28386 ft 447 kts 216°
2026-05-05 21:02 51.15361 1.04385 27909 ft 450 kts 216°
2026-05-05 21:03 51.12845 1.01444 27422 ft 437 kts 216°
2026-05-05 21:03 51.10454 0.98651 26939 ft 416 kts 216°
2026-05-05 21:03 51.08191 0.96013 26436 ft 400 kts 216°
2026-05-05 21:03 51.06085 0.93181 25924 ft 396 kts 229°
2026-05-05 21:04 51.04618 0.89515 25436 ft 392 kts 243°
2026-05-05 21:04 51.03428 0.85559 24956 ft 403 kts 245°
2026-05-05 21:04 51.02262 0.81506 24475 ft 407 kts 245°
2026-05-05 21:04 51.01055 0.77431 24005 ft 411 kts 245°
2026-05-05 21:05 50.99816 0.73357 23531 ft 409 kts 245°
2026-05-05 21:05 50.98587 0.69283 22985 ft 408 kts 245°
2026-05-05 21:05 50.97374 0.65219 22446 ft 404 kts 245°
2026-05-05 21:05 50.96170 0.61208 21912 ft 402 kts 245°
2026-05-05 21:06 50.94966 0.57230 21390 ft 399 kts 245°
2026-05-05 21:06 50.93769 0.53277 20939 ft 396 kts 245°
2026-05-05 21:06 50.92584 0.49346 20431 ft 394 kts 246°
2026-05-05 21:06 50.91780 0.45233 19924 ft 389 kts 264°
2026-05-05 21:07 50.91863 0.41027 19431 ft 385 kts 282°
2026-05-05 21:07 50.92130 0.39300 19236 ft 382 kts 286°
2026-05-05 21:07 50.92858 0.35330 18755 ft 366 kts 288°
2026-05-05 21:07 50.93576 0.31540 18234 ft 353 kts 288°
2026-05-05 21:08 50.94335 0.27879 17631 ft 344 kts 297°
2026-05-05 21:08 50.95787 0.24974 17099 ft 332 kts 321°
2026-05-05 21:08 50.97488 0.23020 16623 ft 321 kts 328°
2026-05-05 21:08 50.99328 0.21223 16118 ft 307 kts 330°
2026-05-05 21:09 51.01134 0.19535 15616 ft 295 kts 330°
2026-05-05 21:09 51.02558 0.17546 15147 ft 286 kts 303°
2026-05-05 21:09 51.03142 0.14616 14703 ft 278 kts 270°
2026-05-05 21:09 51.02625 0.11704 14190 ft 279 kts 241°
2026-05-05 21:10 51.01510 0.09173 13705 ft 278 kts 233°
2026-05-05 21:10 51.00309 0.06808 13176 ft 277 kts 231°
2026-05-05 21:10 50.99064 0.04425 12638 ft 276 kts 231°
2026-05-05 21:10 50.97847 0.02121 12126 ft 275 kts 231°
2026-05-05 21:11 50.96617 -0.00199 11620 ft 274 kts 231°
2026-05-05 21:11 50.95388 -0.02508 11115 ft 273 kts 231°
2026-05-05 21:11 50.94167 -0.04798 10619 ft 271 kts 231°
2026-05-05 21:11 50.92949 -0.07076 10132 ft 270 kts 231°
2026-05-05 21:12 50.91730 -0.09344 9635 ft 269 kts 231°
2026-05-05 21:12 50.90514 -0.11597 9094 ft 268 kts 231°
2026-05-05 21:12 50.89318 -0.13807 8576 ft 267 kts 231°
2026-05-05 21:12 50.88109 -0.16035 8062 ft 266 kts 231°
2026-05-05 21:13 50.87114 -0.18458 7551 ft 260 kts 255°
2026-05-05 21:13 50.87110 -0.21228 7070 ft 251 kts 292°
2026-05-05 21:13 50.88125 -0.23358 6601 ft 242 kts 326°
2026-05-05 21:13 50.89546 -0.24668 6105 ft 241 kts 334°
2026-05-05 21:14 50.91020 -0.25821 5989 ft 226 kts 335°
2026-05-05 21:14 50.92468 -0.26933 6080 ft 229 kts 336°
2026-05-05 21:14 50.93879 -0.28146 5982 ft 234 kts 327°
2026-05-05 21:14 50.95149 -0.29739 5611 ft 232 kts 321°
2026-05-05 21:15 50.96370 -0.31419 5223 ft 230 kts 321°
2026-05-05 21:15 50.97552 -0.33063 4928 ft 226 kts 321°
2026-05-05 21:15 50.98752 -0.34746 4496 ft 230 kts 321°
2026-05-05 21:15 50.99951 -0.36431 4081 ft 228 kts 321°
2026-05-05 21:16 51.01135 -0.38089 3743 ft 225 kts 321°
2026-05-05 21:16 51.02320 -0.39740 3410 ft 227 kts 321°
2026-05-05 21:16 51.03106 -0.40830 3197 ft 227 kts 321°
2026-05-05 21:16 51.04673 -0.42997 3003 ft 226 kts 321°
2026-05-05 21:17 51.05869 -0.44646 2999 ft 223 kts 321°
2026-05-05 21:17 51.07004 -0.46216 2994 ft 207 kts 321°
2026-05-05 21:17 51.08185 -0.47265 3011 ft 191 kts 355°
2026-05-05 21:17 51.09061 -0.47202 3044 ft 191 kts 20°
2026-05-05 21:18 51.10050 -0.45991 3186 ft 183 kts 49°
2026-05-05 21:18 51.10826 -0.44330 3050 ft 182 kts 57°
2026-05-05 21:18 51.11440 -0.42592 3008 ft 184 kts 66°
2026-05-05 21:18 51.11781 -0.40642 2792 ft 178 kts 76°
2026-05-05 21:19 51.12051 -0.38820 2575 ft 163 kts 76°
2026-05-05 21:19 51.12302 -0.37054 2355 ft 158 kts 77°
2026-05-05 21:19 51.12527 -0.35440 2150 ft 145 kts 77°
2026-05-05 21:19 51.12734 -0.33953 1963 ft 128 kts 77°
2026-05-05 21:20 51.12922 -0.32602 1792 ft 123 kts 77°
2026-05-05 21:20 51.13099 -0.31332 1635 ft 115 kts 77°
2026-05-05 21:20 51.13276 -0.30076 1477 ft 115 kts 77°
2026-05-05 21:20 51.13442 -0.28846 1320 ft 114 kts 77°
2026-05-05 21:21 51.13618 -0.27631 1131 ft 114 kts 76°
2026-05-05 21:21 51.13798 -0.26395 961 ft 112 kts 76°
2026-05-05 21:21 51.13973 -0.25158 780 ft 116 kts 76°
2026-05-05 21:21 51.14145 -0.23921 630 ft 113 kts 76°
2026-05-05 21:22 51.14310 -0.22691 464 ft 112 kts 77°
2026-05-05 21:22 51.14469 -0.21464 323 ft 112 kts 77°
2026-05-05 21:22 51.14633 -0.20281 213 ft 101 kts 76°
2026-05-05 21:22 51.14746 -0.19557 212 ft 32 kts 76°
2026-05-05 21:23 51.14778 -0.19331 208 ft 34 kts 77°
2026-05-05 21:23 51.14857 -0.18776 213 ft 67 kts 77°
2026-05-05 21:23 51.14955 -0.18496 213 ft 18 kts 51°
2026-05-05 21:23 51.14973 -0.18458 211 ft 0 kts 53°
2026-05-05 21:25 51.14990 -0.18421 205 ft 12 kts 54°
2026-05-05 21:25 51.15071 -0.18255 204 ft 26 kts 51°
2026-05-05 21:25 51.15120 -0.18196 212 ft 9 kts 15°
2026-05-05 21:26 51.15182 -0.18194 205 ft 8 kts 17°
2026-05-05 21:26 51.15218 -0.18116 211 ft 12 kts 44°
2026-05-05 21:26 51.15260 -0.18102 205 ft 8 kts 349°
2026-05-05 21:26 51.15324 -0.18122 212 ft 18 kts 346°
2026-05-05 21:27 51.15409 -0.18154 205 ft 26 kts 347°
2026-05-05 21:27 51.15597 -0.18229 205 ft 24 kts 348°
2026-05-05 21:27 51.15705 -0.18177 205 ft 13 kts 13°
2026-05-05 21:28 51.15755 -0.18137 209 ft 5 kts 64°
2026-05-05 21:28 51.15788 -0.18070 210 ft 6 kts 27°
2026-05-05 21:28 51.15813 -0.18073 205 ft 7 kts 349°
2026-05-05 21:28 51.15898 -0.18103 205 ft 16 kts 348°
2026-05-05 21:29 51.15972 -0.18127 208 ft 0 kts 349°
2026-05-05 21:29 51.15995 -0.18134 205 ft 6 kts 348°
2026-05-05 21:29 51.16004 -0.18137 205 ft 4 kts 348°
2026-05-05 21:29 51.16049 -0.18153 205 ft 10 kts 348°
2026-05-05 21:30 51.16122 -0.18180 205 ft 4 kts 334°
2026-05-05 21:30 51.16130 -0.18203 207 ft 3 kts 284°
2026-05-05 21:30 51.16129 -0.18251 205 ft 3 kts 256°
2026-05-05 21:30 51.16119 -0.18318 208 ft 0 kts 257°